Time,TemperatureF,DewpointF,PressureIn,WindDirection,WindDirectionDegrees,WindSpeedMPH,WindSpeedGustMPH,Humidity,HourlyPrecipIn,Conditions,Clouds,dailyrainin,SoftwareType,DateUTC
2013-09-28 00:01:00,60.3,53.1,30.14,North,1,3.0,5.0,77,0.00,,,0.00,Wunderground v.1.15,2013-09-28 04:01:00,
2013-09-28 00:03:00,60.1,52.9,30.14,West,281,3.0,5.0,77,0.00,,,0.00,Wunderground v.1.15,2013-09-28 04:03:00,
2013-09-28 00:04:00,60.1,52.9,30.14,NW,315,3.0,5.0,77,0.00,,,0.00,Wunderground v.1.15,2013-09-28 04:04:00,
2013-09-28 00:06:00,60.0,52.8,30.14,SSW,210,2.0,5.0,77,0.00,,,0.00,Wunderground v.1.15,2013-09-28 04:06:00,
2013-09-28 00:12:00,59.9,53.0,30.14,WNW,283,2.0,5.0,78,0.00,,,0.00,Wunderground v.1.15,2013-09-28 04:12:00,
2013-09-28 00:18:00,59.6,52.7,30.14,SSE,168,3.0,5.0,78,0.00,,,0.00,Wunderground v.1.15,2013-09-28 04:18:00,
2013-09-28 00:24:00,59.5,52.6,30.14,SSE,148,3.0,5.0,78,0.00,,,0.00,Wunderground v.1.15,2013-09-28 04:24:00,
2013-09-28 00:30:00,59.2,52.7,30.13,SE,128,3.0,3.0,79,0.00,,,0.00,Wunderground v.1.15,2013-09-28 04:30:00,
2013-09-28 00:36:00,59.0,52.5,30.14,SE,136,2.0,6.0,79,0.00,,,0.00,Wunderground v.1.15,2013-09-28 04:36:00,
2013-09-28 00:42:00,58.7,52.5,30.13,East,98,2.0,5.0,80,0.00,,,0.00,Wunderground v.1.15,2013-09-28 04:42:00,
2013-09-28 00:48:00,58.4,52.6,30.13,NNW,340,2.0,5.0,81,0.00,,,0.00,Wunderground v.1.15,2013-09-28 04:48:00,
2013-09-28 00:53:00,58.3,52.5,30.13,NNW,344,2.0,5.0,81,0.00,,,0.00,Wunderground v.1.15,2013-09-28 04:53:00,
2013-09-28 00:59:00,58.1,52.6,30.13,NE,53,2.0,5.0,82,0.00,,,0.00,Wunderground v.1.15,2013-09-28 04:59:00,
2013-09-28 01:05:00,58.0,52.5,30.13,ENE,68,2.0,5.0,82,0.00,,,0.00,Wunderground v.1.15,2013-09-28 05:05:00,
2013-09-28 01:11:00,57.8,52.3,30.13,ESE,103,2.0,5.0,82,0.00,,,0.00,Wunderground v.1.15,2013-09-28 05:11:00,
2013-09-28 01:16:00,57.6,52.5,30.13,NNE,30,2.0,5.0,83,0.00,,,0.00,Wunderground v.1.15,2013-09-28 05:16:00,
2013-09-28 01:22:00,57.5,52.4,30.13,North,350,2.0,5.0,83,0.00,,,0.00,Wunderground v.1.15,2013-09-28 05:22:00,
2013-09-28 01:28:00,57.2,52.4,30.13,NNE,32,1.0,5.0,84,0.00,,,0.00,Wunderground v.1.15,2013-09-28 05:28:00,
2013-09-28 01:34:00,57.1,52.3,30.13,ESE,122,2.0,5.0,84,0.00,,,0.00,Wunderground v.1.15,2013-09-28 05:34:00,
2013-09-28 01:40:00,56.8,52.3,30.13,NE,50,2.0,5.0,85,0.00,,,0.00,Wunderground v.1.15,2013-09-28 05:40:00,
2013-09-28 01:46:00,56.6,52.1,30.13,ESE,110,1.0,5.0,85,0.00,,,0.00,Wunderground v.1.15,2013-09-28 05:46:00,
2013-09-28 01:52:00,56.4,52.3,30.13,ESE,107,1.0,5.0,86,0.00,,,0.00,Wunderground v.1.15,2013-09-28 05:52:00,
2013-09-28 01:58:00,56.3,52.2,30.13,ESE,111,1.0,5.0,86,0.00,,,0.00,Wunderground v.1.15,2013-09-28 05:58:00,
2013-09-28 02:04:00,56.3,52.2,30.13,ESE,120,2.0,5.0,86,0.00,,,0.00,Wunderground v.1.15,2013-09-28 06:04:00,
2013-09-28 02:10:00,56.2,52.1,30.13,NE,34,2.0,2.0,86,0.00,,,0.00,Wunderground v.1.15,2013-09-28 06:10:00,
2013-09-28 02:16:00,56.1,52.0,30.13,NNE,21,2.0,5.0,86,0.00,,,0.00,Wunderground v.1.15,2013-09-28 06:16:00,
2013-09-28 02:21:00,55.9,52.1,30.13,East,93,2.0,5.0,87,0.00,,,0.00,Wunderground v.1.15,2013-09-28 06:21:00,
2013-09-28 02:27:00,55.8,52.0,30.13,NE,54,3.0,5.0,87,0.00,,,0.00,Wunderground v.1.15,2013-09-28 06:27:00,
2013-09-28 02:33:00,55.7,51.9,30.13,ENE,57,2.0,5.0,87,0.00,,,0.00,Wunderground v.1.15,2013-09-28 06:33:00,
2013-09-28 02:38:00,55.6,51.8,30.13,North,359,2.0,7.0,87,0.00,,,0.00,Wunderground v.1.15,2013-09-28 06:38:00,
2013-09-28 02:44:00,55.5,51.7,30.13,SE,124,3.0,5.0,87,0.00,,,0.00,Wunderground v.1.15,2013-09-28 06:44:00,
2013-09-28 02:50:00,55.4,51.9,30.13,SSE,165,3.0,3.0,88,0.00,,,0.00,Wunderground v.1.15,2013-09-28 06:50:00,
2013-09-28 02:56:00,55.3,51.8,30.13,East,91,3.0,5.0,88,0.00,,,0.00,Wunderground v.1.15,2013-09-28 06:56:00,
2013-09-28 03:02:00,55.1,51.6,30.13,East,95,2.0,5.0,88,0.00,,,0.00,Wunderground v.1.15,2013-09-28 07:02:00,
2013-09-28 03:08:00,54.8,51.3,30.13,ESE,102,1.0,5.0,88,0.00,,,0.00,Wunderground v.1.15,2013-09-28 07:08:00,
2013-09-28 03:13:00,54.6,51.4,30.13,ESE,108,1.0,5.0,89,0.00,,,0.00,Wunderground v.1.15,2013-09-28 07:13:00,
2013-09-28 03:19:00,54.3,51.1,30.13,East,92,1.0,5.0,89,0.00,,,0.00,Wunderground v.1.15,2013-09-28 07:19:00,
2013-09-28 03:25:00,54.2,51.3,30.13,East,88,0.0,5.0,90,0.00,,,0.00,Wunderground v.1.15,2013-09-28 07:25:00,
2013-09-28 03:31:00,54.0,51.1,30.13,ESE,122,1.0,5.0,90,0.00,,,0.00,Wunderground v.1.15,2013-09-28 07:31:00,
2013-09-28 03:37:00,53.8,50.9,30.13,ESE,106,1.0,5.0,90,0.00,,,0.00,Wunderground v.1.15,2013-09-28 07:37:00,
2013-09-28 03:42:00,53.8,50.9,30.13,East,96,1.0,5.0,90,0.00,,,0.00,Wunderground v.1.15,2013-09-28 07:42:00,
2013-09-28 03:48:00,53.5,50.6,30.13,SE,131,1.0,5.0,90,0.00,,,0.00,Wunderground v.1.15,2013-09-28 07:48:00,
2013-09-28 03:54:00,53.4,50.8,30.13,ESE,110,1.0,5.0,91,0.00,,,0.00,Wunderground v.1.15,2013-09-28 07:54:00,
2013-09-28 04:00:00,53.3,50.7,30.13,East,83,1.0,1.0,91,0.00,,,0.00,Wunderground v.1.15,2013-09-28 08:00:00,
2013-09-28 04:06:00,53.2,50.6,30.13,ENE,75,1.0,5.0,91,0.00,,,0.00,Wunderground v.1.15,2013-09-28 08:06:00,
2013-09-28 04:12:00,53.0,50.7,30.13,East,93,1.0,5.0,92,0.00,,,0.00,Wunderground v.1.15,2013-09-28 08:12:00,
2013-09-28 04:18:00,52.8,50.5,30.13,SSE,158,1.0,5.0,92,0.00,,,0.00,Wunderground v.1.15,2013-09-28 08:18:00,
2013-09-28 04:24:00,52.8,50.5,30.13,ENE,70,1.0,5.0,92,0.00,,,0.00,Wunderground v.1.15,2013-09-28 08:24:00,
2013-09-28 04:29:00,52.6,50.3,30.12,ESE,111,1.0,5.0,92,0.00,,,0.00,Wunderground v.1.15,2013-09-28 08:29:00,
2013-09-28 04:35:00,52.4,50.1,30.12,ESE,109,1.0,5.0,92,0.00,,,0.00,Wunderground v.1.15,2013-09-28 08:35:00,
2013-09-28 04:41:00,52.3,50.3,30.12,ESE,103,1.0,5.0,93,0.00,,,0.00,Wunderground v.1.15,2013-09-28 08:41:00,
2013-09-28 04:47:00,52.2,50.2,30.13,ENE,60,1.0,5.0,93,0.00,,,0.00,Wunderground v.1.15,2013-09-28 08:47:00,
2013-09-28 04:53:00,52.1,50.1,30.13,ESE,107,1.0,5.0,93,0.00,,,0.00,Wunderground v.1.15,2013-09-28 08:53:00,
2013-09-28 04:59:00,52.1,50.1,30.13,ESE,111,1.0,5.0,93,0.00,,,0.00,Wunderground v.1.15,2013-09-28 08:59:00,
2013-09-28 05:05:00,52.1,50.4,30.13,East,101,1.0,5.0,94,0.00,,,0.00,Wunderground v.1.15,2013-09-28 09:05:00,
2013-09-28 05:10:00,52.2,50.5,30.13,ESE,112,1.0,5.0,94,0.00,,,0.00,Wunderground v.1.15,2013-09-28 09:10:00,
2013-09-28 05:16:00,52.1,50.1,30.13,East,96,1.0,5.0,93,0.00,,,0.00,Wunderground v.1.15,2013-09-28 09:16:00,
2013-09-28 05:22:00,52.0,50.3,30.13,ESE,107,1.0,5.0,94,0.00,,,0.00,Wunderground v.1.15,2013-09-28 09:22:00,
2013-09-28 05:28:00,52.1,50.4,30.13,ESE,107,1.0,5.0,94,0.00,,,0.00,Wunderground v.1.15,2013-09-28 09:28:00,
2013-09-28 05:34:00,52.0,50.3,30.13,ESE,123,1.0,5.0,94,0.00,,,0.00,Wunderground v.1.15,2013-09-28 09:34:00,
2013-09-28 05:40:00,52.0,50.3,30.13,ESE,110,1.0,5.0,94,0.00,,,0.00,Wunderground v.1.15,2013-09-28 09:40:00,
2013-09-28 05:46:00,52.0,50.3,30.13,ESE,105,1.0,5.0,94,0.00,,,0.00,Wunderground v.1.15,2013-09-28 09:46:00,
2013-09-28 05:52:00,51.9,49.9,30.13,ESE,107,1.0,5.0,93,0.00,,,0.00,Wunderground v.1.15,2013-09-28 09:52:00,
2013-09-28 05:57:00,51.8,50.1,30.13,ESE,120,2.0,5.0,94,0.00,,,0.00,Wunderground v.1.15,2013-09-28 09:57:00,
2013-09-28 06:03:00,51.8,50.1,30.14,ESE,117,2.0,5.0,94,0.00,,,0.00,Wunderground v.1.15,2013-09-28 10:03:00,
2013-09-28 06:08:00,51.8,50.1,30.14,ESE,115,1.0,5.0,94,0.00,,,0.00,Wunderground v.1.15,2013-09-28 10:08:00,
2013-09-28 06:14:00,51.6,49.9,30.14,East,83,1.0,5.0,94,0.00,,,0.00,Wunderground v.1.15,2013-09-28 10:14:00,
2013-09-28 06:20:00,51.5,49.8,30.15,ESE,115,1.0,5.0,94,0.00,,,0.00,Wunderground v.1.15,2013-09-28 10:20:00,
2013-09-28 06:26:00,51.4,49.7,30.15,ESE,111,1.0,5.0,94,0.00,,,0.00,Wunderground v.1.15,2013-09-28 10:26:00,
2013-09-28 06:32:00,51.4,49.7,30.15,East,101,1.0,5.0,94,0.00,,,0.00,Wunderground v.1.15,2013-09-28 10:32:00,
2013-09-28 06:38:00,51.4,49.7,30.15,ESE,113,2.0,5.0,94,0.00,,,0.00,Wunderground v.1.15,2013-09-28 10:38:00,
2013-09-28 06:44:00,51.4,50.0,30.15,SE,125,2.0,5.0,95,0.00,,,0.00,Wunderground v.1.15,2013-09-28 10:44:00,
2013-09-28 06:49:00,51.4,49.7,30.15,ESE,120,2.0,5.0,94,0.00,,,0.00,Wunderground v.1.15,2013-09-28 10:49:00,
2013-09-28 06:55:00,51.3,49.6,30.15,SE,130,2.0,5.0,94,0.00,,,0.00,Wunderground v.1.15,2013-09-28 10:55:00,
2013-09-28 07:00:00,51.3,49.6,30.15,ESE,115,2.0,2.0,94,0.00,,,0.00,Wunderground v.1.15,2013-09-28 11:00:00,
2013-09-28 07:06:00,51.4,49.7,30.15,SE,128,1.0,5.0,94,0.00,,,0.00,Wunderground v.1.15,2013-09-28 11:06:00,
2013-09-28 07:12:00,51.4,49.7,30.15,ESE,110,1.0,5.0,94,0.00,,,0.00,Wunderground v.1.15,2013-09-28 11:12:00,
2013-09-28 07:18:00,51.2,49.5,30.15,SE,125,1.0,5.0,94,0.00,,,0.00,Wunderground v.1.15,2013-09-28 11:18:00,
2013-09-28 07:24:00,51.2,49.5,30.15,ESE,102,2.0,5.0,94,0.00,,,0.00,Wunderground v.1.15,2013-09-28 11:24:00,
2013-09-28 07:30:00,51.1,49.4,30.15,SE,131,2.0,5.0,94,0.00,,,0.00,Wunderground v.1.15,2013-09-28 11:30:00,
2013-09-28 07:36:00,51.2,49.5,30.15,SE,131,2.0,5.0,94,0.00,,,0.00,Wunderground v.1.15,2013-09-28 11:36:00,
2013-09-28 07:41:00,51.3,49.6,30.15,SE,142,2.0,5.0,94,0.00,,,0.00,Wunderground v.1.15,2013-09-28 11:41:00,
2013-09-28 07:47:00,51.4,49.7,30.15,SE,145,2.0,5.0,94,0.00,,,0.00,Wunderground v.1.15,2013-09-28 11:47:00,
2013-09-28 07:53:00,51.5,49.8,30.15,SE,128,2.0,5.0,94,0.00,,,0.00,Wunderground v.1.15,2013-09-28 11:53:00,
2013-09-28 07:59:00,52.0,50.0,30.15,ESE,117,2.0,5.0,93,0.00,,,0.00,Wunderground v.1.15,2013-09-28 11:59:00,
2013-09-28 08:05:00,52.4,50.1,30.15,SE,141,2.0,5.0,92,0.00,,,0.00,Wunderground v.1.15,2013-09-28 12:05:00,
2013-09-28 08:11:00,52.9,50.3,30.16,ESE,118,1.0,2.0,91,0.00,,,0.00,Wunderground v.1.15,2013-09-28 12:11:00,
2013-09-28 08:17:00,53.4,50.5,30.16,SE,134,1.0,5.0,90,0.00,,,0.00,Wunderground v.1.15,2013-09-28 12:17:00,
2013-09-28 08:23:00,54.0,50.8,30.16,SE,131,1.0,5.0,89,0.00,,,0.00,Wunderground v.1.15,2013-09-28 12:23:00,
2013-09-28 08:28:00,54.4,50.9,30.16,ESE,120,1.0,5.0,88,0.00,,,0.00,Wunderground v.1.15,2013-09-28 12:28:00,
2013-09-28 08:34:00,54.9,51.4,30.16,SE,130,2.0,5.0,88,0.00,,,0.00,Wunderground v.1.15,2013-09-28 12:34:00,
2013-09-28 08:39:00,55.6,52.1,30.16,SE,125,1.0,5.0,88,0.00,,,0.00,Wunderground v.1.15,2013-09-28 12:39:00,
2013-09-28 08:46:00,56.5,52.4,30.16,SE,129,1.0,5.0,86,0.00,,,0.00,Wunderground v.1.15,2013-09-28 12:46:00,
2013-09-28 08:51:00,57.0,52.5,30.16,ESE,120,1.0,5.0,85,0.00,,,0.00,Wunderground v.1.15,2013-09-28 12:51:00,
2013-09-28 08:57:00,57.6,52.5,30.16,SE,128,1.0,5.0,83,0.00,,,0.00,Wunderground v.1.15,2013-09-28 12:57:00,
2013-09-28 09:03:00,58.0,52.9,30.16,SE,127,2.0,5.0,83,0.00,,,0.00,Wunderground v.1.15,2013-09-28 13:03:00,
2013-09-28 09:08:00,58.3,52.8,30.16,SE,139,2.0,5.0,82,0.00,,,0.00,Wunderground v.1.15,2013-09-28 13:08:00,
2013-09-28 09:14:00,58.7,53.2,30.16,SSW,203,3.0,5.0,82,0.00,,,0.00,Wunderground v.1.15,2013-09-28 13:14:00,
2013-09-28 09:20:00,59.6,53.8,30.16,SE,142,3.0,5.0,81,0.00,,,0.00,Wunderground v.1.15,2013-09-28 13:20:00,
2013-09-28 09:26:00,60.2,53.7,30.16,SE,127,3.0,5.0,79,0.00,,,0.00,Wunderground v.1.15,2013-09-28 13:26:00,
2013-09-28 09:32:00,60.6,53.7,30.16,SSE,148,3.0,7.0,78,0.00,,,0.00,Wunderground v.1.15,2013-09-28 13:32:00,
2013-09-28 09:38:00,61.3,54.4,30.16,SE,141,4.0,7.0,78,0.00,,,0.00,Wunderground v.1.15,2013-09-28 13:38:00,
2013-09-28 09:44:00,61.9,54.2,30.16,SSE,150,4.0,6.0,76,0.00,,,0.00,Wunderground v.1.15,2013-09-28 13:44:00,
2013-09-28 09:49:00,62.7,54.7,30.16,SSE,150,4.0,6.0,75,0.00,,,0.00,Wunderground v.1.15,2013-09-28 13:49:00,
2013-09-28 09:55:00,63.6,54.8,30.17,SSW,195,3.0,5.0,73,0.00,,,0.00,Wunderground v.1.15,2013-09-28 13:55:00,
2013-09-28 10:00:00,64.6,55.0,30.17,SE,138,3.0,5.0,71,0.00,,,0.00,Wunderground v.1.15,2013-09-28 14:00:00,
2013-09-28 10:06:00,65.5,55.1,30.17,SSE,148,3.0,5.0,69,0.00,,,0.00,Wunderground v.1.15,2013-09-28 14:06:00,
2013-09-28 10:12:00,66.1,55.2,30.17,SSE,160,3.0,5.0,68,0.00,,,0.00,Wunderground v.1.15,2013-09-28 14:12:00,
2013-09-28 10:18:00,66.8,55.5,30.17,SSE,158,3.0,5.0,67,0.00,,,0.00,Wunderground v.1.15,2013-09-28 14:18:00,
2013-09-28 10:24:00,67.6,55.4,30.17,SSE,150,3.0,5.0,65,0.00,,,0.00,Wunderground v.1.15,2013-09-28 14:24:00,
2013-09-28 10:30:00,68.0,55.8,30.17,SSW,204,3.0,5.0,65,0.00,,,0.00,Wunderground v.1.15,2013-09-28 14:30:00,
2013-09-28 10:36:00,68.5,55.8,30.17,SE,127,3.0,5.0,64,0.00,,,0.00,Wunderground v.1.15,2013-09-28 14:36:00,
2013-09-28 10:42:00,69.2,56.1,30.17,SE,131,3.0,5.0,63,0.00,,,0.00,Wunderground v.1.15,2013-09-28 14:42:00,
2013-09-28 10:47:00,69.8,56.2,30.17,SSE,160,2.0,5.0,62,0.00,,,0.00,Wunderground v.1.15,2013-09-28 14:47:00,
2013-09-28 10:53:00,70.9,55.9,30.17,SE,127,3.0,5.0,59,0.00,,,0.00,Wunderground v.1.15,2013-09-28 14:53:00,
2013-09-28 10:59:00,71.7,56.1,30.17,SE,138,3.0,5.0,58,0.00,,,0.00,Wunderground v.1.15,2013-09-28 14:59:00,
2013-09-28 11:05:00,72.4,55.8,30.16,SE,131,4.0,5.0,56,0.00,,,0.00,Wunderground v.1.15,2013-09-28 15:05:00,
2013-09-28 11:11:00,72.6,56.0,30.16,SE,134,4.0,5.0,56,0.00,,,0.00,Wunderground v.1.15,2013-09-28 15:11:00,
2013-09-28 11:17:00,73.2,56.6,30.16,South,190,4.0,5.0,56,0.00,,,0.00,Wunderground v.1.15,2013-09-28 15:17:00,
2013-09-28 11:23:00,73.6,56.4,30.16,SSE,156,4.0,5.0,55,0.00,,,0.00,Wunderground v.1.15,2013-09-28 15:23:00,
2013-09-28 11:29:00,74.4,56.2,30.16,SSE,149,3.0,5.0,53,0.00,,,0.00,Wunderground v.1.15,2013-09-28 15:29:00,
2013-09-28 11:34:00,74.9,56.6,30.16,SSE,153,4.0,8.0,53,0.00,,,0.00,Wunderground v.1.15,2013-09-28 15:34:00,
2013-09-28 11:40:00,75.3,55.9,30.15,SSE,150,5.0,5.0,51,0.00,,,0.00,Wunderground v.1.15,2013-09-28 15:40:00,
2013-09-28 11:45:00,75.5,56.1,30.15,SSE,150,6.0,9.0,51,0.00,,,0.00,Wunderground v.1.15,2013-09-28 15:45:00,
2013-09-28 11:50:00,75.5,56.1,30.15,SSE,165,6.0,6.0,51,0.00,,,0.00,Wunderground v.1.15,2013-09-28 15:50:00,
2013-09-28 11:56:00,75.7,56.3,30.14,SSW,203,6.0,10.0,51,0.00,,,0.00,Wunderground v.1.15,2013-09-28 15:56:00,
2013-09-28 12:02:00,76.0,56.0,30.14,SSW,210,7.0,8.0,50,0.00,,,0.00,Wunderground v.1.15,2013-09-28 16:02:00,
2013-09-28 12:08:00,76.7,57.2,30.14,SSW,212,7.0,12.0,51,0.00,,,0.00,Wunderground v.1.15,2013-09-28 16:08:00,
2013-09-28 12:14:00,76.5,56.5,30.14,SW,222,7.0,12.0,50,0.00,,,0.00,Wunderground v.1.15,2013-09-28 16:14:00,
2013-09-28 12:20:00,76.8,56.2,30.14,SSW,201,7.0,7.0,49,0.00,,,0.00,Wunderground v.1.15,2013-09-28 16:20:00,
2013-09-28 12:26:00,76.8,56.8,30.13,SW,232,7.0,12.0,50,0.00,,,0.00,Wunderground v.1.15,2013-09-28 16:26:00,
2013-09-28 12:32:00,77.1,55.9,30.13,SSW,206,7.0,10.0,48,0.00,,,0.00,Wunderground v.1.15,2013-09-28 16:32:00,
2013-09-28 12:37:00,77.3,56.1,30.13,SSW,208,6.0,10.0,48,0.00,,,0.00,Wunderground v.1.15,2013-09-28 16:37:00,
2013-09-28 12:43:00,77.5,55.7,30.13,South,184,6.0,11.0,47,0.00,,,0.00,Wunderground v.1.15,2013-09-28 16:43:00,
2013-09-28 12:49:00,77.6,55.8,30.12,SSW,198,7.0,12.0,47,0.00,,,0.00,Wunderground v.1.15,2013-09-28 16:49:00,
2013-09-28 12:55:00,78.3,56.4,30.12,SE,139,6.0,8.0,47,0.00,,,0.00,Wunderground v.1.15,2013-09-28 16:55:00,
2013-09-28 13:00:00,78.6,56.7,30.12,SSW,198,5.0,5.0,47,0.00,,,0.00,Wunderground v.1.15,2013-09-28 17:00:00,
2013-09-28 13:06:00,78.6,55.5,30.12,SSW,208,5.0,9.0,45,0.00,,,0.00,Wunderground v.1.15,2013-09-28 17:06:00,
2013-09-28 13:12:00,78.5,56.0,30.11,SSE,160,6.0,8.0,46,0.00,,,0.00,Wunderground v.1.15,2013-09-28 17:12:00,
2013-09-28 13:18:00,78.9,55.8,30.11,SSW,194,6.0,8.0,45,0.00,,,0.00,Wunderground v.1.15,2013-09-28 17:18:00,
2013-09-28 13:24:00,79.2,56.0,30.10,WSW,239,6.0,9.0,45,0.00,,,0.00,Wunderground v.1.15,2013-09-28 17:24:00,
2013-09-28 13:30:00,78.9,56.4,30.10,SSE,154,6.0,6.0,46,0.00,,,0.00,Wunderground v.1.15,2013-09-28 17:30:00,
2013-09-28 13:36:00,79.2,55.4,30.10,SSW,204,5.0,7.0,44,0.00,,,0.00,Wunderground v.1.15,2013-09-28 17:36:00,
2013-09-28 13:41:00,79.7,55.9,30.09,SW,222,6.0,9.0,44,0.00,,,0.00,Wunderground v.1.15,2013-09-28 17:41:00,
2013-09-28 13:47:00,79.6,55.8,30.09,SW,219,6.0,9.0,44,0.00,,,0.00,Wunderground v.1.15,2013-09-28 17:47:00,
2013-09-28 13:52:00,79.8,55.9,30.09,South,179,7.0,8.0,44,0.00,,,0.00,Wunderground v.1.15,2013-09-28 17:52:00,
2013-09-28 13:58:00,80.0,56.1,30.08,South,190,7.0,13.0,44,0.00,,,0.00,Wunderground v.1.15,2013-09-28 17:58:00,
2013-09-28 14:04:00,79.9,56.0,30.08,SSE,148,7.0,8.0,44,0.00,,,0.00,Wunderground v.1.15,2013-09-28 18:04:00,
2013-09-28 14:10:00,80.0,55.5,30.08,WSW,240,6.0,8.0,43,0.00,,,0.00,Wunderground v.1.15,2013-09-28 18:10:00,
2013-09-28 14:16:00,80.1,55.6,30.07,SE,146,7.0,10.0,43,0.00,,,0.00,Wunderground v.1.15,2013-09-28 18:16:00,
2013-09-28 14:22:00,80.5,55.3,30.07,SE,129,6.0,8.0,42,0.00,,,0.00,Wunderground v.1.15,2013-09-28 18:22:00,
2013-09-28 14:28:00,80.2,55.7,30.07,South,173,7.0,11.0,43,0.00,,,0.00,Wunderground v.1.15,2013-09-28 18:28:00,
2013-09-28 14:34:00,80.4,55.9,30.07,SE,142,7.0,7.0,43,0.00,,,0.00,Wunderground v.1.15,2013-09-28 18:34:00,
2013-09-28 14:39:00,80.4,55.2,30.07,SE,127,6.0,7.0,42,0.00,,,0.00,Wunderground v.1.15,2013-09-28 18:39:00,
2013-09-28 14:45:00,80.5,55.9,30.07,SSW,193,6.0,11.0,43,0.00,,,0.00,Wunderground v.1.15,2013-09-28 18:45:00,
2013-09-28 14:51:00,80.2,55.7,30.07,SE,131,6.0,6.0,43,0.00,,,0.00,Wunderground v.1.15,2013-09-28 18:51:00,
2013-09-28 14:57:00,79.7,55.2,30.06,SW,226,5.0,7.0,43,0.00,,,0.00,Wunderground v.1.15,2013-09-28 18:57:00,
2013-09-28 15:04:00,79.9,56.0,30.06,SSW,204,6.0,7.0,44,0.00,,,0.00,Wunderground v.1.15,2013-09-28 19:04:00,
2013-09-28 15:09:00,79.9,54.8,30.06,South,187,7.0,10.0,42,0.00,,,0.00,Wunderground v.1.15,2013-09-28 19:09:00,
2013-09-28 15:14:00,80.4,55.9,30.06,SW,219,7.0,8.0,43,0.00,,,0.00,Wunderground v.1.15,2013-09-28 19:14:00,
2013-09-28 15:20:00,80.6,55.4,30.05,SSW,198,6.0,11.0,42,0.00,,,0.00,Wunderground v.1.15,2013-09-28 19:20:00,
2013-09-28 15:26:00,81.3,56.0,30.05,SW,235,6.0,11.0,42,0.00,,,0.00,Wunderground v.1.15,2013-09-28 19:26:00,
2013-09-28 15:32:00,81.7,55.7,30.05,SSE,151,5.0,5.0,41,0.00,,,0.00,Wunderground v.1.15,2013-09-28 19:32:00,
2013-09-28 15:38:00,81.5,55.5,30.05,SW,222,6.0,11.0,41,0.00,,,0.00,Wunderground v.1.15,2013-09-28 19:38:00,
2013-09-28 15:44:00,80.3,55.1,30.05,SSW,194,7.0,9.0,42,0.00,,,0.00,Wunderground v.1.15,2013-09-28 19:44:00,
2013-09-28 15:49:00,79.8,55.9,30.05,SW,236,6.0,9.0,44,0.00,,,0.00,Wunderground v.1.15,2013-09-28 19:49:00,
2013-09-28 15:55:00,79.5,55.7,30.05,South,169,6.0,6.0,44,0.00,,,0.00,Wunderground v.1.15,2013-09-28 19:55:00,
2013-09-28 16:00:00,79.7,55.9,30.04,SSW,194,5.0,7.0,44,0.00,,,0.00,Wunderground v.1.15,2013-09-28 20:00:00,
2013-09-28 16:06:00,80.2,55.0,30.04,SSE,167,6.0,11.0,42,0.00,,,0.00,Wunderground v.1.15,2013-09-28 20:06:00,
2013-09-28 16:12:00,80.8,54.9,30.04,South,186,8.0,8.0,41,0.00,,,0.00,Wunderground v.1.15,2013-09-28 20:12:00,
2013-09-28 16:18:00,81.4,55.4,30.04,South,169,7.0,8.0,41,0.00,,,0.00,Wunderground v.1.15,2013-09-28 20:18:00,
2013-09-28 16:24:00,81.6,56.3,30.03,SSE,156,6.0,7.0,42,0.00,,,0.00,Wunderground v.1.15,2013-09-28 20:24:00,
2013-09-28 16:29:00,81.5,56.2,30.03,SE,139,6.0,9.0,42,0.00,,,0.00,Wunderground v.1.15,2013-09-28 20:29:00,
2013-09-28 16:35:00,81.8,56.5,30.03,South,190,7.0,10.0,42,0.00,,,0.00,Wunderground v.1.15,2013-09-28 20:35:00,
2013-09-28 16:41:00,82.3,56.2,30.03,South,190,6.0,7.0,41,0.00,,,0.00,Wunderground v.1.15,2013-09-28 20:41:00,
2013-09-28 16:46:00,82.0,56.0,30.03,SSW,200,6.0,8.0,41,0.00,,,0.00,Wunderground v.1.15,2013-09-28 20:46:00,
2013-09-28 16:52:00,81.9,54.5,30.03,South,169,7.0,7.0,39,0.00,,,0.00,Wunderground v.1.15,2013-09-28 20:52:00,
2013-09-28 16:58:00,82.0,54.6,30.03,ESE,114,7.0,9.0,39,0.00,,,0.00,Wunderground v.1.15,2013-09-28 20:58:00,
2013-09-28 17:04:00,81.7,54.3,30.03,SSW,200,8.0,10.0,39,0.00,,,0.00,Wunderground v.1.15,2013-09-28 21:04:00,
2013-09-28 17:10:00,81.8,55.1,30.03,SE,136,7.0,7.0,40,0.00,,,0.00,Wunderground v.1.15,2013-09-28 21:10:00,
2013-09-28 17:15:00,82.1,55.4,30.03,SSW,202,6.0,9.0,40,0.00,,,0.00,Wunderground v.1.15,2013-09-28 21:15:00,
2013-09-28 17:21:00,81.7,55.0,30.02,WSW,253,7.0,8.0,40,0.00,,,0.00,Wunderground v.1.15,2013-09-28 21:21:00,
2013-09-28 17:27:00,81.5,54.8,30.02,SSW,203,6.0,8.0,40,0.00,,,0.00,Wunderground v.1.15,2013-09-28 21:27:00,
2013-09-28 17:33:00,81.8,55.8,30.02,SSW,207,6.0,7.0,41,0.00,,,0.00,Wunderground v.1.15,2013-09-28 21:33:00,
2013-09-28 17:39:00,81.4,55.4,30.02,SSE,158,7.0,9.0,41,0.00,,,0.00,Wunderground v.1.15,2013-09-28 21:39:00,
2013-09-28 17:45:00,81.4,55.4,30.02,SW,229,6.0,8.0,41,0.00,,,0.00,Wunderground v.1.15,2013-09-28 21:45:00,
2013-09-28 17:52:00,81.2,55.9,30.02,SW,222,6.0,8.0,42,0.00,,,0.00,Wunderground v.1.15,2013-09-28 21:52:00,
2013-09-28 17:57:00,81.0,55.7,30.02,SSW,200,6.0,9.0,42,0.00,,,0.00,Wunderground v.1.15,2013-09-28 21:57:00,
2013-09-28 18:03:00,80.9,55.7,30.02,South,177,5.0,7.0,42,0.00,,,0.00,Wunderground v.1.15,2013-09-28 22:03:00,
2013-09-28 18:09:00,80.9,56.3,30.02,SSE,150,5.0,7.0,43,0.00,,,0.00,Wunderground v.1.15,2013-09-28 22:09:00,
2013-09-28 18:14:00,80.7,56.1,30.02,SW,219,5.0,8.0,43,0.00,,,0.00,Wunderground v.1.15,2013-09-28 22:14:00,
2013-09-28 18:20:00,80.1,56.2,30.01,South,181,6.0,8.0,44,0.00,,,0.00,Wunderground v.1.15,2013-09-28 22:20:00,
2013-09-28 18:26:00,79.8,55.9,30.02,SSE,149,6.0,9.0,44,0.00,,,0.00,Wunderground v.1.15,2013-09-28 22:26:00,
2013-09-28 18:32:00,79.8,56.6,30.02,SSW,197,5.0,6.0,45,0.00,,,0.00,Wunderground v.1.15,2013-09-28 22:32:00,
2013-09-28 18:38:00,79.5,56.9,30.02,SE,134,5.0,6.0,46,0.00,,,0.00,Wunderground v.1.15,2013-09-28 22:38:00,
2013-09-28 18:44:00,79.2,56.6,30.02,SSW,194,4.0,5.0,46,0.00,,,0.00,Wunderground v.1.15,2013-09-28 22:44:00,
2013-09-28 18:50:00,79.0,57.0,30.02,SE,139,4.0,4.0,47,0.00,,,0.00,Wunderground v.1.15,2013-09-28 22:50:00,
2013-09-28 18:56:00,78.5,57.2,30.02,SSW,207,4.0,6.0,48,0.00,,,0.00,Wunderground v.1.15,2013-09-28 22:56:00,
2013-09-28 19:02:00,77.9,56.6,30.02,SSE,158,4.0,5.0,48,0.00,,,0.00,Wunderground v.1.15,2013-09-28 23:02:00,
2013-09-28 19:08:00,77.3,56.6,30.02,South,170,4.0,6.0,49,0.00,,,0.00,Wunderground v.1.15,2013-09-28 23:08:00,
2013-09-28 19:14:00,76.6,56.6,30.01,South,183,4.0,7.0,50,0.00,,,0.00,Wunderground v.1.15,2013-09-28 23:14:00,
2013-09-28 19:20:00,75.9,56.5,30.01,SSE,162,4.0,5.0,51,0.00,,,0.00,Wunderground v.1.15,2013-09-28 23:20:00,
2013-09-28 19:26:00,75.0,56.2,30.01,SSE,150,4.0,5.0,52,0.00,,,0.00,Wunderground v.1.15,2013-09-28 23:26:00,
2013-09-28 19:31:00,74.4,56.2,30.01,SSE,167,3.0,5.0,53,0.00,,,0.00,Wunderground v.1.15,2013-09-28 23:31:00,
2013-09-28 19:37:00,73.9,56.2,30.01,SSW,194,3.0,5.0,54,0.00,,,0.00,Wunderground v.1.15,2013-09-28 23:37:00,
2013-09-28 19:43:00,73.4,55.7,30.01,SSE,156,3.0,5.0,54,0.00,,,0.00,Wunderground v.1.15,2013-09-28 23:43:00,
2013-09-28 19:49:00,73.1,56.0,30.01,SSE,156,3.0,5.0,55,0.00,,,0.00,Wunderground v.1.15,2013-09-28 23:49:00,
2013-09-28 19:55:00,72.6,56.0,30.01,SE,140,2.0,5.0,56,0.00,,,0.00,Wunderground v.1.15,2013-09-28 23:55:00,
2013-09-28 20:00:00,72.2,55.6,30.01,SSE,155,1.0,5.0,56,0.00,,,0.00,Wunderground v.1.15,2013-09-29 00:00:00,
2013-09-28 20:06:00,71.7,55.7,30.01,SE,143,1.0,5.0,57,0.00,,,0.00,Wunderground v.1.15,2013-09-29 00:06:00,
2013-09-28 20:12:00,71.3,55.8,30.02,SSW,197,1.0,5.0,58,0.00,,,0.00,Wunderground v.1.15,2013-09-29 00:12:00,
2013-09-28 20:17:00,70.9,55.9,30.02,SE,135,1.0,5.0,59,0.00,,,0.00,Wunderground v.1.15,2013-09-29 00:17:00,
2013-09-28 20:23:00,70.5,55.9,30.01,SE,136,1.0,5.0,60,0.00,,,0.00,Wunderground v.1.15,2013-09-29 00:23:00,
2013-09-28 20:29:00,70.4,55.8,30.01,SE,131,2.0,5.0,60,0.00,,,0.00,Wunderground v.1.15,2013-09-29 00:29:00,
2013-09-28 20:34:00,70.3,55.8,30.02,East,101,2.0,5.0,60,0.00,,,0.00,Wunderground v.1.15,2013-09-29 00:34:00,
2013-09-28 20:40:00,69.7,55.6,30.01,SE,133,2.0,5.0,61,0.00,,,0.00,Wunderground v.1.15,2013-09-29 00:40:00,
2013-09-28 20:46:00,69.6,55.6,30.01,SE,139,3.0,5.0,61,0.00,,,0.00,Wunderground v.1.15,2013-09-29 00:46:00,
2013-09-28 20:51:00,69.5,55.9,30.01,SSE,160,2.0,5.0,62,0.00,,,0.00,Wunderground v.1.15,2013-09-29 00:51:00,
2013-09-28 20:57:00,69.2,55.6,30.01,SE,135,2.0,5.0,62,0.00,,,0.00,Wunderground v.1.15,2013-09-29 00:57:00,
2013-09-28 21:02:00,68.9,55.8,30.01,SE,127,1.0,5.0,63,0.00,,,0.00,Wunderground v.1.15,2013-09-29 01:02:00,
2013-09-28 21:08:00,68.7,55.6,30.01,SSW,197,1.0,5.0,63,0.00,,,0.00,Wunderground v.1.15,2013-09-29 01:08:00,
2013-09-28 21:13:00,68.5,55.8,30.01,SSE,167,1.0,5.0,64,0.00,,,0.00,Wunderground v.1.15,2013-09-29 01:13:00,
2013-09-28 21:19:00,68.3,56.1,30.01,SSE,158,1.0,5.0,65,0.00,,,0.00,Wunderground v.1.15,2013-09-29 01:19:00,
2013-09-28 21:25:00,68.1,55.9,30.01,SE,143,1.0,5.0,65,0.00,,,0.00,Wunderground v.1.15,2013-09-29 01:25:00,
2013-09-28 21:30:00,68.0,56.2,30.00,South,190,1.0,5.0,66,0.00,,,0.00,Wunderground v.1.15,2013-09-29 01:30:00,
2013-09-28 21:35:00,67.8,56.0,30.01,South,175,1.0,5.0,66,0.00,,,0.00,Wunderground v.1.15,2013-09-29 01:35:00,
2013-09-28 21:40:00,67.5,56.2,30.01,SSW,203,1.0,5.0,67,0.00,,,0.00,Wunderground v.1.15,2013-09-29 01:40:00,
2013-09-28 21:46:00,67.4,56.1,30.01,South,176,2.0,5.0,67,0.00,,,0.00,Wunderground v.1.15,2013-09-29 01:46:00,
2013-09-28 21:51:00,67.3,56.4,30.01,SE,133,3.0,5.0,68,0.00,,,0.00,Wunderground v.1.15,2013-09-29 01:51:00,
2013-09-28 21:56:00,67.3,56.4,30.01,South,179,3.0,5.0,68,0.00,,,0.00,Wunderground v.1.15,2013-09-29 01:56:00,
2013-09-28 22:02:00,67.1,56.2,30.01,SE,139,3.0,5.0,68,0.00,,,0.00,Wunderground v.1.15,2013-09-29 02:02:00,
2013-09-28 22:08:00,66.7,56.2,30.01,SSE,151,2.0,5.0,69,0.00,,,0.00,Wunderground v.1.15,2013-09-29 02:08:00,
2013-09-28 22:14:00,66.4,56.3,30.01,SE,134,2.0,5.0,70,0.00,,,0.00,Wunderground v.1.15,2013-09-29 02:14:00,
2013-09-28 22:20:00,66.3,56.2,30.01,SW,218,2.0,5.0,70,0.00,,,0.00,Wunderground v.1.15,2013-09-29 02:20:00,
2013-09-28 22:26:00,66.4,56.3,30.01,SE,145,2.0,5.0,70,0.00,,,0.00,Wunderground v.1.15,2013-09-29 02:26:00,
2013-09-28 22:31:00,66.4,56.7,30.01,SSW,212,2.0,5.0,71,0.00,,,0.00,Wunderground v.1.15,2013-09-29 02:31:00,
2013-09-28 22:37:00,66.5,56.8,30.01,SSW,197,2.0,5.0,71,0.00,,,0.00,Wunderground v.1.15,2013-09-29 02:37:00,
2013-09-28 22:43:00,66.7,56.6,30.01,South,176,2.0,5.0,70,0.00,,,0.00,Wunderground v.1.15,2013-09-29 02:43:00,
2013-09-28 22:48:00,66.8,56.7,30.01,South,190,2.0,5.0,70,0.00,,,0.00,Wunderground v.1.15,2013-09-29 02:48:00,
2013-09-28 22:53:00,66.7,57.0,30.01,SSW,197,2.0,5.0,71,0.00,,,0.00,Wunderground v.1.15,2013-09-29 02:53:00,
2013-09-28 22:58:00,66.7,57.0,30.01,South,174,2.0,5.0,71,0.00,,,0.00,Wunderground v.1.15,2013-09-29 02:58:00,
2013-09-28 23:04:00,66.5,56.8,30.01,SE,143,2.0,5.0,71,0.00,,,0.00,Wunderground v.1.15,2013-09-29 03:04:00,
2013-09-28 23:09:00,66.3,57.0,30.01,ESE,117,2.0,5.0,72,0.00,,,0.00,Wunderground v.1.15,2013-09-29 03:09:00,
2013-09-28 23:15:00,65.7,56.8,30.01,ESE,117,2.0,5.0,73,0.00,,,0.00,Wunderground v.1.15,2013-09-29 03:15:00,
2013-09-28 23:21:00,65.4,56.9,30.01,SSE,168,2.0,5.0,74,0.00,,,0.00,Wunderground v.1.15,2013-09-29 03:21:00,
2013-09-28 23:27:00,65.1,56.6,30.01,SSE,148,2.0,5.0,74,0.00,,,0.00,Wunderground v.1.15,2013-09-29 03:27:00,
2013-09-28 23:32:00,64.9,56.8,30.01,South,188,2.0,5.0,75,0.00,,,0.00,Wunderground v.1.15,2013-09-29 03:32:00,
2013-09-28 23:37:00,64.7,56.6,30.01,SSW,197,2.0,5.0,75,0.00,,,0.00,Wunderground v.1.15,2013-09-29 03:37:00,
2013-09-28 23:43:00,64.3,56.6,30.01,SSE,148,2.0,5.0,76,0.00,,,0.00,Wunderground v.1.15,2013-09-29 03:43:00,
2013-09-28 23:49:00,64.2,56.8,30.01,SE,134,2.0,5.0,77,0.00,,,0.00,Wunderground v.1.15,2013-09-29 03:49:00,
2013-09-28 23:54:00,64.2,56.8,30.01,South,176,2.0,5.0,77,0.00,,,0.00,Wunderground v.1.15,2013-09-29 03:54:00,
2013-09-28 23:59:00,64.1,56.7,30.02,SSW,203,2.0,5.0,77,0.00,,,0.00,Wunderground v.1.15,2013-09-29 03:59:00,